CFG7DP LPMA-EDDL

Flight info

Callsign CFG7DP
Flight time 3h 28m
Altitude 36000
Route DEGUN DCT ROLAR DCT VERAM DCT ASMAR DCT IBIDO DCT DEMOS DCT LOTEE DCT AZFIC DCT ERIGA DCT MOKOR UN741 NTS DCT GONEK DCT TABOV DCT TSU DCT OQQAL DCT RANUX/N0446F350 DCT VALEK DCT LUTAX DCT DIK N853 ARCKY T853 NVO T857 BIKMU BIKMU1A
Aircraft A21N/M-SBDE3FGHIJ1J4J7LORVWXYZ/SB2D1G1

Departure

Time 2026-05-07 10:22
Airport Cristiano Ronaldo International Airport (LPMA)

Arrival

Time 2026-05-07 13:50
Airport Düsseldorf Airport (EDDL)
Time Latitude Longitude Altitude Speed Heading
2026-05-07 09:26 32.69413 -16.77591 175 ft 0 kts 137°
2026-05-07 10:12 32.69423 -16.77603 175 ft 3 kts 139°
2026-05-07 10:12 32.69437 -16.77617 175 ft 2 kts 138°
2026-05-07 10:12 32.69452 -16.77630 174 ft 3 kts 165°
2026-05-07 10:12 32.69468 -16.77630 174 ft 3 kts 209°
2026-05-07 10:13 32.69484 -16.77615 174 ft 3 kts 226°
2026-05-07 10:13 32.69489 -16.77610 174 ft 0 kts 226°
2026-05-07 10:16 32.69476 -16.77625 174 ft 5 kts 226°
2026-05-07 10:17 32.69442 -16.77666 174 ft 9 kts 225°
2026-05-07 10:17 32.69394 -16.77725 174 ft 11 kts 225°
2026-05-07 10:17 32.69339 -16.77792 174 ft 12 kts 226°
2026-05-07 10:17 32.69290 -16.77875 174 ft 13 kts 261°
2026-05-07 10:18 32.69288 -16.77988 174 ft 14 kts 270°
2026-05-07 10:18 32.69240 -16.78087 172 ft 15 kts 224°
2026-05-07 10:18 32.69174 -16.78164 169 ft 10 kts 225°
2026-05-07 10:18 32.69125 -16.78223 166 ft 10 kts 225°
2026-05-07 10:19 32.69072 -16.78285 163 ft 11 kts 225°
2026-05-07 10:19 32.69015 -16.78353 160 ft 12 kts 225°
2026-05-07 10:19 32.68941 -16.78400 159 ft 12 kts 193°
2026-05-07 10:19 32.68885 -16.78430 159 ft 9 kts 242°
2026-05-07 10:20 32.68893 -16.78462 159 ft 2 kts 336°
2026-05-07 10:20 32.68913 -16.78461 159 ft 3 kts 20°
2026-05-07 10:20 32.68936 -16.78442 159 ft 5 kts 45°
2026-05-07 10:20 32.68937 -16.78441 159 ft 0 kts 45°
2026-05-07 10:21 32.68970 -16.78400 159 ft 30 kts 45°
2026-05-07 10:21 32.69296 -16.78019 174 ft 100 kts 44°
2026-05-07 10:21 32.69946 -16.77260 209 ft 159 kts 44°
2026-05-07 10:22 32.70739 -16.76305 683 ft 162 kts 45°
2026-05-07 10:22 32.71357 -16.75191 1254 ft 165 kts 75°
2026-05-07 10:22 32.71314 -16.73853 1805 ft 170 kts 108°
2026-05-07 10:22 32.70826 -16.72472 2112 ft 192 kts 113°
2026-05-07 10:23 32.70289 -16.70937 2529 ft 209 kts 112°
2026-05-07 10:23 32.69721 -16.69255 2935 ft 232 kts 111°
2026-05-07 10:23 32.69090 -16.67373 3301 ft 256 kts 112°
2026-05-07 10:23 32.68431 -16.65339 3933 ft 269 kts 107°
2026-05-07 10:24 32.68309 -16.63127 4688 ft 273 kts 79°
2026-05-07 10:24 32.69028 -16.61053 5454 ft 275 kts 53°
2026-05-07 10:24 32.70283 -16.59334 6240 ft 277 kts 45°
2026-05-07 10:24 32.71639 -16.57676 6977 ft 281 kts 45°
2026-05-07 10:25 32.73005 -16.55986 7707 ft 286 kts 45°
2026-05-07 10:25 32.74445 -16.54333 8396 ft 290 kts 34°
2026-05-07 10:25 32.76161 -16.53070 9163 ft 290 kts 27°
2026-05-07 10:25 32.77935 -16.51908 9910 ft 292 kts 26°
2026-05-07 10:26 32.79745 -16.50718 10398 ft 304 kts 26°
2026-05-07 10:26 32.81642 -16.49457 10673 ft 321 kts 26°
2026-05-07 10:26 32.83646 -16.48117 10931 ft 339 kts 26°
2026-05-07 10:26 32.85751 -16.46682 11187 ft 358 kts 28°
2026-05-07 10:27 32.87902 -16.45061 11436 ft 375 kts 31°
2026-05-07 10:27 32.90079 -16.43343 11906 ft 383 kts 31°
2026-05-07 10:27 32.92310 -16.41562 12473 ft 389 kts 31°
2026-05-07 10:27 32.94569 -16.39746 13053 ft 394 kts 31°
2026-05-07 10:28 32.96854 -16.37899 13632 ft 400 kts 31°
2026-05-07 10:28 32.99172 -16.36016 14163 ft 406 kts 31°
2026-05-07 10:28 33.01524 -16.34099 14696 ft 410 kts 31°
2026-05-07 10:28 33.03889 -16.32165 15227 ft 414 kts 31°
2026-05-07 10:29 33.06273 -16.30216 15743 ft 418 kts 31°
2026-05-07 10:29 33.08683 -16.28244 16269 ft 422 kts 31°
2026-05-07 10:29 33.11118 -16.26255 16817 ft 425 kts 31°
2026-05-07 10:30 33.16250 -16.22676 17885 ft 431 kts 26°
2026-05-07 10:30 33.18877 -16.20915 18386 ft 435 kts 26°
2026-05-07 10:30 33.21522 -16.19118 18834 ft 439 kts 26°
2026-05-07 10:30 33.24190 -16.17298 19287 ft 442 kts 26°
2026-05-07 10:31 33.26873 -16.15464 19741 ft 446 kts 26°
2026-05-07 10:31 33.29538 -16.13640 20188 ft 449 kts 26°
2026-05-07 10:31 33.32254 -16.11769 20628 ft 452 kts 26°
2026-05-07 10:31 33.34983 -16.09886 21071 ft 455 kts 26°
2026-05-07 10:32 33.37738 -16.07990 21503 ft 458 kts 26°
2026-05-07 10:32 33.40514 -16.06082 21905 ft 461 kts 26°
2026-05-07 10:32 33.43305 -16.04158 22313 ft 464 kts 26°
2026-05-07 10:32 33.46108 -16.02225 22685 ft 466 kts 26°
2026-05-07 10:33 33.48927 -16.00275 23033 ft 469 kts 26°
2026-05-07 10:33 33.51761 -15.98316 23353 ft 471 kts 26°
2026-05-07 10:33 33.54603 -15.96357 23656 ft 472 kts 26°
2026-05-07 10:33 33.57417 -15.94406 23871 ft 474 kts 26°
2026-05-07 10:34 33.60279 -15.92411 24086 ft 476 kts 26°
2026-05-07 10:34 33.63147 -15.90417 24265 ft 478 kts 26°
2026-05-07 10:34 33.66027 -15.88415 24428 ft 479 kts 26°
2026-05-07 10:34 33.68914 -15.86406 24606 ft 480 kts 26°
2026-05-07 10:35 33.71813 -15.84385 24950 ft 483 kts 26°
2026-05-07 10:35 33.74737 -15.82360 25269 ft 485 kts 26°
2026-05-07 10:35 33.77680 -15.80337 25568 ft 488 kts 26°
2026-05-07 10:35 33.80631 -15.78298 25882 ft 491 kts 26°
2026-05-07 10:36 33.83600 -15.76233 26199 ft 494 kts 26°
2026-05-07 10:36 33.86578 -15.74156 26516 ft 496 kts 26°
2026-05-07 10:36 33.89536 -15.72097 26813 ft 499 kts 26°
2026-05-07 10:36 33.92549 -15.69996 27106 ft 501 kts 26°
2026-05-07 10:37 33.95579 -15.67877 27392 ft 504 kts 25°
2026-05-07 10:37 33.98615 -15.65754 27704 ft 506 kts 26°
2026-05-07 10:37 34.01663 -15.63620 28010 ft 507 kts 25°
2026-05-07 10:37 34.04719 -15.61478 28403 ft 506 kts 25°
2026-05-07 10:38 34.07768 -15.59339 28776 ft 506 kts 25°
2026-05-07 10:38 34.10811 -15.57199 29139 ft 506 kts 25°
2026-05-07 10:38 34.13849 -15.55070 29494 ft 505 kts 25°
2026-05-07 10:38 34.16893 -15.52932 29843 ft 505 kts 25°
2026-05-07 10:39 34.19886 -15.50824 30156 ft 505 kts 25°
2026-05-07 10:39 34.22924 -15.48682 30455 ft 504 kts 25°
2026-05-07 10:39 34.25951 -15.46550 30794 ft 503 kts 25°
2026-05-07 10:39 34.28969 -15.44426 31074 ft 502 kts 25°
2026-05-07 10:40 34.31990 -15.42291 31335 ft 502 kts 25°
2026-05-07 10:40 34.35003 -15.40160 31599 ft 501 kts 25°
2026-05-07 10:40 34.38016 -15.38031 31853 ft 501 kts 25°
2026-05-07 10:40 34.41029 -15.35899 32104 ft 501 kts 25°
2026-05-07 10:41 34.44035 -15.33768 32344 ft 500 kts 25°
2026-05-07 10:41 34.47040 -15.31640 32590 ft 500 kts 25°
2026-05-07 10:41 34.50040 -15.29515 32803 ft 499 kts 25°
2026-05-07 10:41 34.53035 -15.27390 33034 ft 499 kts 25°
2026-05-07 10:42 34.55997 -15.25282 33240 ft 499 kts 25°
2026-05-07 10:42 34.58994 -15.23146 33406 ft 500 kts 25°
2026-05-07 10:42 34.61994 -15.21011 33582 ft 500 kts 24°
2026-05-07 10:42 34.64995 -15.18876 33778 ft 500 kts 24°
2026-05-07 10:43 34.67993 -15.16743 33965 ft 499 kts 24°
2026-05-07 10:43 34.70990 -15.14603 34135 ft 499 kts 24°
2026-05-07 10:43 34.73983 -15.12461 34296 ft 499 kts 24°
2026-05-07 10:43 34.76974 -15.10326 34448 ft 498 kts 24°
2026-05-07 10:44 34.79962 -15.08188 34604 ft 498 kts 24°
2026-05-07 10:44 34.82947 -15.06049 34757 ft 498 kts 24°
2026-05-07 10:44 34.88930 -15.01760 34955 ft 499 kts 24°
2026-05-07 10:45 34.91892 -14.99633 35078 ft 499 kts 24°
2026-05-07 10:45 34.94881 -14.97483 35216 ft 499 kts 24°
2026-05-07 10:45 34.97870 -14.95333 35341 ft 499 kts 24°
2026-05-07 10:45 35.00860 -14.93179 35478 ft 498 kts 24°
2026-05-07 10:46 35.03838 -14.91029 35665 ft 495 kts 24°
2026-05-07 10:46 35.06802 -14.88892 35828 ft 494 kts 24°
2026-05-07 10:46 35.09757 -14.86766 35967 ft 493 kts 24°
2026-05-07 10:46 35.12711 -14.84636 36066 ft 492 kts 24°
2026-05-07 10:47 35.18611 -14.80368 36050 ft 492 kts 24°
2026-05-07 10:47 35.23507 -14.76827 36043 ft 492 kts 24°
2026-05-07 10:48 35.30357 -14.71857 36029 ft 492 kts 24°
2026-05-07 10:48 35.36252 -14.67573 36065 ft 493 kts 25°
2026-05-07 10:49 35.41163 -14.63995 36037 ft 495 kts 25°
2026-05-07 10:49 35.47110 -14.59664 36038 ft 497 kts 25°
2026-05-07 10:50 35.53094 -14.55301 36038 ft 500 kts 25°
2026-05-07 10:50 35.59064 -14.50931 36033 ft 500 kts 25°
2026-05-07 10:51 35.65036 -14.46554 36047 ft 501 kts 25°
2026-05-07 10:51 35.71014 -14.42159 36034 ft 501 kts 25°
2026-05-07 10:52 35.76968 -14.37783 36033 ft 501 kts 25°
2026-05-07 10:52 35.82956 -14.33367 36021 ft 501 kts 25°
2026-05-07 10:53 35.88936 -14.28946 36047 ft 501 kts 25°
2026-05-07 10:53 35.94935 -14.24516 36026 ft 502 kts 25°
2026-05-07 10:54 36.00927 -14.20080 36030 ft 500 kts 25°
2026-05-07 10:54 36.06875 -14.15665 36029 ft 498 kts 25°
2026-05-07 10:55 36.12820 -14.11246 36031 ft 499 kts 25°
2026-05-07 10:55 36.18733 -14.06844 36026 ft 499 kts 25°
2026-05-07 10:56 36.24683 -14.02397 36023 ft 499 kts 25°
2026-05-07 10:56 36.30628 -13.97957 36022 ft 499 kts 25°
2026-05-07 10:57 36.36584 -13.93505 36018 ft 499 kts 25°
2026-05-07 10:57 36.42493 -13.89073 36047 ft 499 kts 26°
2026-05-07 10:58 36.48447 -13.84598 36020 ft 498 kts 26°
2026-05-07 10:58 36.54354 -13.80146 36015 ft 496 kts 25°
2026-05-07 10:59 36.60252 -13.75692 36015 ft 496 kts 25°
2026-05-07 10:59 36.66159 -13.71228 36014 ft 496 kts 25°
2026-05-07 11:00 36.72033 -13.66787 36023 ft 498 kts 26°
2026-05-07 11:00 36.77946 -13.62304 36018 ft 497 kts 26°
2026-05-07 11:01 36.83859 -13.57811 36015 ft 497 kts 26°
2026-05-07 11:01 36.89767 -13.53312 36013 ft 497 kts 26°
2026-05-07 11:02 36.95670 -13.48812 36024 ft 496 kts 26°
2026-05-07 11:02 37.01558 -13.44319 36008 ft 494 kts 26°
2026-05-07 11:03 37.07415 -13.39829 36011 ft 494 kts 26°
2026-05-07 11:03 37.13275 -13.35329 36010 ft 494 kts 26°
2026-05-07 11:04 37.19144 -13.30830 36010 ft 494 kts 26°
2026-05-07 11:04 37.24965 -13.26348 36018 ft 493 kts 26°
2026-05-07 11:05 37.30824 -13.21830 36009 ft 493 kts 26°
2026-05-07 11:05 37.36679 -13.17311 36004 ft 493 kts 26°
2026-05-07 11:06 37.42486 -13.12816 35999 ft 493 kts 26°
2026-05-07 11:06 37.48310 -13.08297 36014 ft 490 kts 26°
2026-05-07 11:07 37.54106 -13.03795 36002 ft 489 kts 26°
2026-05-07 11:07 37.59896 -12.99292 35999 ft 489 kts 26°
2026-05-07 11:08 37.65692 -12.94774 35998 ft 489 kts 26°
2026-05-07 11:08 37.71483 -12.90249 35997 ft 489 kts 26°
2026-05-07 11:09 37.77266 -12.85725 35998 ft 489 kts 26°
2026-05-07 11:09 37.83061 -12.81179 35992 ft 489 kts 26°
2026-05-07 11:10 37.88856 -12.76627 35998 ft 490 kts 26°
2026-05-07 11:10 37.94631 -12.72082 35995 ft 488 kts 26°
2026-05-07 11:11 38.00398 -12.67536 36007 ft 488 kts 26°
2026-05-07 11:11 38.06130 -12.63019 35998 ft 488 kts 26°
2026-05-07 11:12 38.11886 -12.58459 35999 ft 488 kts 26°
2026-05-07 11:12 38.17646 -12.53886 35992 ft 488 kts 26°
2026-05-07 11:13 38.23404 -12.49326 36003 ft 488 kts 26°
2026-05-07 11:13 38.29163 -12.44736 35992 ft 488 kts 26°
2026-05-07 11:14 38.34930 -12.40149 35988 ft 488 kts 26°
2026-05-07 11:14 38.40621 -12.35602 35987 ft 484 kts 26°
2026-05-07 11:15 38.46336 -12.31033 35987 ft 485 kts 26°
2026-05-07 11:15 38.52049 -12.26452 35995 ft 485 kts 26°
2026-05-07 11:16 38.57760 -12.21865 35987 ft 485 kts 26°
2026-05-07 11:16 38.63476 -12.17266 35986 ft 485 kts 26°
2026-05-07 11:17 38.69185 -12.12661 35983 ft 485 kts 26°
2026-05-07 11:17 38.74889 -12.08053 35992 ft 484 kts 26°
2026-05-07 11:18 38.80563 -12.03456 35979 ft 484 kts 26°
2026-05-07 11:18 38.86229 -11.98860 35975 ft 481 kts 26°
2026-05-07 11:19 38.91880 -11.94269 35976 ft 480 kts 26°
2026-05-07 11:19 38.97526 -11.89672 35987 ft 480 kts 26°
2026-05-07 11:20 39.03162 -11.85071 35973 ft 479 kts 26°
2026-05-07 11:20 39.08793 -11.80471 35971 ft 479 kts 26°
2026-05-07 11:21 39.14386 -11.75891 35972 ft 479 kts 26°
2026-05-07 11:21 39.20025 -11.71265 35968 ft 479 kts 26°
2026-05-07 11:22 39.25645 -11.66643 35980 ft 479 kts 26°
2026-05-07 11:22 39.31273 -11.62010 35966 ft 479 kts 27°
2026-05-07 11:23 39.36887 -11.57375 35963 ft 479 kts 27°
2026-05-07 11:23 39.42495 -11.52730 35962 ft 479 kts 27°
2026-05-07 11:24 39.48099 -11.48051 35973 ft 478 kts 27°
2026-05-07 11:24 39.53691 -11.43372 35965 ft 478 kts 27°
2026-05-07 11:25 39.59249 -11.38737 35962 ft 477 kts 27°
2026-05-07 11:25 39.64848 -11.34096 35960 ft 477 kts 27°
2026-05-07 11:26 39.70436 -11.29424 35988 ft 476 kts 27°
2026-05-07 11:26 39.75978 -11.24789 35961 ft 473 kts 27°
2026-05-07 11:27 39.81508 -11.20138 35959 ft 473 kts 27°
2026-05-07 11:27 39.86997 -11.15523 35956 ft 473 kts 27°
2026-05-07 11:28 39.92536 -11.10866 35957 ft 473 kts 27°
2026-05-07 11:28 39.98059 -11.06208 35961 ft 472 kts 27°
2026-05-07 11:29 40.03570 -11.01551 35958 ft 472 kts 27°
2026-05-07 11:29 40.09075 -10.96890 35956 ft 471 kts 27°
2026-05-07 11:30 40.14589 -10.92260 35957 ft 469 kts 27°
2026-05-07 11:30 40.20071 -10.87653 35954 ft 468 kts 27°
2026-05-07 11:31 40.25498 -10.83040 35950 ft 468 kts 27°
2026-05-07 11:31 40.30955 -10.78381 35949 ft 468 kts 27°
2026-05-07 11:32 40.39127 -10.71368 35950 ft 468 kts 27°
2026-05-07 11:33 40.44574 -10.66679 35956 ft 466 kts 28°
2026-05-07 11:33 40.50002 -10.62014 35950 ft 466 kts 27°
2026-05-07 11:34 40.55414 -10.57335 35950 ft 466 kts 28°
2026-05-07 11:34 40.59901 -10.53460 35948 ft 463 kts 27°
2026-05-07 11:35 40.66168 -10.48074 35959 ft 462 kts 27°
2026-05-07 11:35 40.70665 -10.44193 35946 ft 460 kts 27°
2026-05-07 11:36 40.75992 -10.39573 35940 ft 460 kts 28°
2026-05-07 11:36 40.81339 -10.34917 35939 ft 460 kts 28°
2026-05-07 11:37 40.86696 -10.30257 35943 ft 460 kts 28°
2026-05-07 11:37 40.92046 -10.25600 35940 ft 459 kts 28°
2026-05-07 11:38 40.97374 -10.20918 35936 ft 459 kts 28°
2026-05-07 11:38 41.02651 -10.16306 35937 ft 456 kts 27°
2026-05-07 11:39 41.07952 -10.11667 35931 ft 456 kts 28°
2026-05-07 11:39 41.13253 -10.07013 35945 ft 456 kts 27°
2026-05-07 11:40 41.18550 -10.02371 35931 ft 456 kts 27°
2026-05-07 11:40 41.23845 -9.97712 35924 ft 456 kts 28°
2026-05-07 11:41 41.29095 -9.93063 35926 ft 456 kts 28°
2026-05-07 11:41 41.34383 -9.88380 35922 ft 456 kts 28°
2026-05-07 11:42 41.39673 -9.83689 35931 ft 456 kts 28°
2026-05-07 11:42 41.44940 -9.79010 35920 ft 454 kts 28°
2026-05-07 11:43 41.50164 -9.74347 35919 ft 454 kts 28°
2026-05-07 11:43 41.55418 -9.69649 35921 ft 454 kts 28°
2026-05-07 11:44 41.60678 -9.64944 35916 ft 454 kts 28°
2026-05-07 11:44 41.65926 -9.60202 35914 ft 455 kts 28°
2026-05-07 11:45 41.71150 -9.55487 35914 ft 455 kts 28°
2026-05-07 11:45 41.76409 -9.50753 35911 ft 455 kts 28°
2026-05-07 11:46 41.81634 -9.46040 35946 ft 455 kts 28°
2026-05-07 11:46 41.86886 -9.41292 35918 ft 455 kts 28°
2026-05-07 11:47 41.92121 -9.36507 35910 ft 456 kts 31°
2026-05-07 11:47 41.96948 -9.30868 35910 ft 460 kts 37°
2026-05-07 11:48 42.01699 -9.25074 35906 ft 460 kts 37°
2026-05-07 11:48 42.06457 -9.19292 35907 ft 460 kts 37°
2026-05-07 11:49 42.11172 -9.13547 35904 ft 460 kts 37°
2026-05-07 11:49 42.15912 -9.07761 35918 ft 459 kts 37°
2026-05-07 11:50 42.20625 -9.01998 35900 ft 456 kts 37°
2026-05-07 11:50 42.25325 -8.96239 35901 ft 456 kts 37°
2026-05-07 11:51 42.30013 -8.90481 35906 ft 455 kts 38°
2026-05-07 11:51 42.34667 -8.84752 35902 ft 455 kts 38°
2026-05-07 11:52 42.39344 -8.78967 35899 ft 455 kts 38°
2026-05-07 11:52 42.44016 -8.73181 35898 ft 455 kts 38°
2026-05-07 11:53 42.48687 -8.67397 35900 ft 454 kts 38°
2026-05-07 11:53 42.53321 -8.61641 35898 ft 455 kts 38°
2026-05-07 11:54 42.57984 -8.55841 35893 ft 455 kts 38°
2026-05-07 11:54 42.62643 -8.50020 35891 ft 455 kts 38°
2026-05-07 11:55 42.67308 -8.44194 35889 ft 455 kts 38°
2026-05-07 11:55 42.71965 -8.38368 35903 ft 455 kts 38°
2026-05-07 11:56 42.76608 -8.32524 35898 ft 455 kts 39°
2026-05-07 11:56 42.81252 -8.26677 35892 ft 454 kts 39°
2026-05-07 11:57 42.85863 -8.20864 35887 ft 454 kts 39°
2026-05-07 11:57 42.90502 -8.14991 35899 ft 454 kts 39°
2026-05-07 11:58 42.95140 -8.09126 35901 ft 454 kts 39°
2026-05-07 11:58 42.99772 -8.03247 35895 ft 454 kts 39°
2026-05-07 11:59 43.04405 -7.97357 35890 ft 454 kts 39°
2026-05-07 11:59 43.09011 -7.91502 35892 ft 454 kts 39°
2026-05-07 12:00 43.13636 -7.85600 35884 ft 455 kts 39°
2026-05-07 12:00 43.18259 -7.79684 35896 ft 454 kts 39°
2026-05-07 12:01 43.22878 -7.73772 35891 ft 454 kts 40°
2026-05-07 12:01 43.27492 -7.67834 35895 ft 454 kts 40°
2026-05-07 12:02 43.32078 -7.61926 35896 ft 454 kts 40°
2026-05-07 12:02 43.36679 -7.55977 35899 ft 452 kts 40°
2026-05-07 12:03 43.41263 -7.50046 35901 ft 452 kts 40°
2026-05-07 12:03 43.45844 -7.44115 35901 ft 452 kts 40°
2026-05-07 12:04 43.50424 -7.38159 35901 ft 452 kts 40°
2026-05-07 12:04 43.54967 -7.32240 35908 ft 452 kts 40°
2026-05-07 12:05 43.59537 -7.26282 35908 ft 452 kts 40°
2026-05-07 12:05 43.64107 -7.20303 35926 ft 453 kts 40°
2026-05-07 12:06 43.68678 -7.14315 35913 ft 453 kts 40°
2026-05-07 12:06 43.73242 -7.08318 35915 ft 453 kts 41°
2026-05-07 12:07 43.77806 -7.02304 35917 ft 453 kts 40°
2026-05-07 12:07 43.82369 -6.96287 35923 ft 453 kts 41°
2026-05-07 12:08 43.86894 -6.90304 35921 ft 453 kts 40°
2026-05-07 12:08 43.91448 -6.84266 35921 ft 453 kts 41°
2026-05-07 12:09 43.96023 -6.78202 35922 ft 455 kts 41°
2026-05-07 12:09 44.00612 -6.72112 35924 ft 456 kts 41°
2026-05-07 12:10 44.05183 -6.65995 35931 ft 456 kts 41°
2026-05-07 12:10 44.09759 -6.59881 35930 ft 456 kts 41°
2026-05-07 12:11 44.14341 -6.53755 35932 ft 456 kts 41°
2026-05-07 12:11 44.18914 -6.47623 35925 ft 456 kts 41°
2026-05-07 12:12 44.23462 -6.41485 35932 ft 461 kts 42°
2026-05-07 12:12 44.28088 -6.35248 35936 ft 462 kts 43°
2026-05-07 12:13 44.32705 -6.29008 35936 ft 462 kts 43°
2026-05-07 12:13 44.37314 -6.22749 35942 ft 462 kts 42°
2026-05-07 12:14 44.41926 -6.16476 35942 ft 462 kts 43°
2026-05-07 12:14 44.46532 -6.10196 35951 ft 462 kts 43°
2026-05-07 12:15 44.51117 -6.03941 35947 ft 464 kts 43°
2026-05-07 12:15 44.55746 -5.97616 35952 ft 465 kts 43°
2026-05-07 12:16 44.60385 -5.91256 35951 ft 465 kts 43°
2026-05-07 12:16 44.65003 -5.84897 35958 ft 465 kts 43°
2026-05-07 12:17 44.69639 -5.78553 35957 ft 465 kts 43°
2026-05-07 12:17 44.74246 -5.72249 35961 ft 465 kts 43°
2026-05-07 12:18 44.78886 -5.65873 35959 ft 466 kts 44°
2026-05-07 12:18 44.83538 -5.59488 35957 ft 467 kts 44°
2026-05-07 12:19 44.88180 -5.53088 35963 ft 467 kts 44°
2026-05-07 12:19 44.92818 -5.46678 35968 ft 467 kts 44°
2026-05-07 12:20 44.97426 -5.40297 35970 ft 466 kts 44°
2026-05-07 12:20 45.02055 -5.33863 35970 ft 467 kts 44°
2026-05-07 12:21 45.06683 -5.27421 35972 ft 467 kts 44°
2026-05-07 12:21 45.11307 -5.20972 35982 ft 466 kts 44°
2026-05-07 12:22 45.15913 -5.14483 35980 ft 466 kts 45°
2026-05-07 12:22 45.20529 -5.08028 35980 ft 466 kts 44°
2026-05-07 12:23 45.25114 -5.01610 35980 ft 467 kts 44°
2026-05-07 12:23 45.29726 -4.95110 35984 ft 466 kts 45°
2026-05-07 12:24 45.33553 -4.89715 35986 ft 466 kts 45°
2026-05-07 12:24 45.38149 -4.83208 35989 ft 466 kts 45°
2026-05-07 12:25 45.42738 -4.76693 35985 ft 466 kts 45°
2026-05-07 12:25 45.47332 -4.70170 35990 ft 466 kts 45°
2026-05-07 12:26 45.51923 -4.63629 35988 ft 467 kts 45°
2026-05-07 12:26 45.56518 -4.57068 35993 ft 467 kts 45°
2026-05-07 12:27 45.61076 -4.50531 35995 ft 467 kts 45°
2026-05-07 12:27 45.65664 -4.43948 35997 ft 467 kts 45°
2026-05-07 12:28 45.70248 -4.37348 36004 ft 467 kts 45°
2026-05-07 12:28 45.74826 -4.30735 36001 ft 467 kts 46°
2026-05-07 12:29 45.79403 -4.24106 36000 ft 467 kts 45°
2026-05-07 12:29 45.83971 -4.17493 35999 ft 467 kts 45°
2026-05-07 12:30 45.88536 -4.10857 36002 ft 467 kts 46°
2026-05-07 12:30 45.93064 -4.04250 36005 ft 467 kts 46°
2026-05-07 12:31 45.97629 -3.97584 36006 ft 467 kts 46°
2026-05-07 12:31 46.02187 -3.90916 36003 ft 468 kts 46°
2026-05-07 12:32 46.06720 -3.84259 36008 ft 468 kts 46°
2026-05-07 12:32 46.11267 -3.77557 36011 ft 468 kts 46°
2026-05-07 12:33 46.18086 -3.67481 36008 ft 468 kts 46°
2026-05-07 12:33 46.22635 -3.60742 36014 ft 468 kts 46°
2026-05-07 12:34 46.27178 -3.54008 36011 ft 468 kts 46°
2026-05-07 12:34 46.31715 -3.47252 36020 ft 468 kts 46°
2026-05-07 12:35 46.36254 -3.40479 36018 ft 468 kts 46°
2026-05-07 12:35 46.40759 -3.33739 36015 ft 468 kts 46°
2026-05-07 12:36 46.45284 -3.26951 36013 ft 468 kts 46°
2026-05-07 12:36 46.49789 -3.20124 36010 ft 468 kts 47°
2026-05-07 12:37 46.54299 -3.13299 36017 ft 468 kts 46°
2026-05-07 12:37 46.58323 -3.05911 36018 ft 467 kts 60°
2026-05-07 12:38 46.61589 -2.97736 36014 ft 467 kts 61°
2026-05-07 12:38 46.64818 -2.89618 36014 ft 467 kts 61°
2026-05-07 12:39 46.68090 -2.81437 36009 ft 467 kts 61°
2026-05-07 12:39 46.71358 -2.73247 36018 ft 467 kts 61°
2026-05-07 12:40 46.74618 -2.65039 36019 ft 467 kts 61°
2026-05-07 12:40 46.77848 -2.56879 36019 ft 467 kts 61°
2026-05-07 12:41 46.81098 -2.48652 36014 ft 467 kts 61°
2026-05-07 12:41 46.84357 -2.40419 36008 ft 468 kts 61°
2026-05-07 12:42 46.87672 -2.32300 36015 ft 468 kts 59°
2026-05-07 12:42 46.91100 -2.24186 36008 ft 468 kts 59°
2026-05-07 12:43 46.94536 -2.16067 36010 ft 468 kts 59°
2026-05-07 12:43 46.97930 -2.07930 36005 ft 468 kts 59°
2026-05-07 12:44 47.01289 -1.99751 36003 ft 469 kts 61°
2026-05-07 12:44 47.04483 -1.91480 36001 ft 469 kts 61°
2026-05-07 12:45 47.07694 -1.83152 36001 ft 469 kts 61°
2026-05-07 12:45 47.10901 -1.74809 36005 ft 469 kts 61°
2026-05-07 12:46 47.14091 -1.66449 35997 ft 469 kts 62°
2026-05-07 12:46 47.17424 -1.58210 35999 ft 469 kts 57°
2026-05-07 12:47 47.21024 -1.50191 35997 ft 469 kts 57°
2026-05-07 12:47 47.24615 -1.42250 35997 ft 468 kts 57°
2026-05-07 12:48 47.28216 -1.34254 35998 ft 469 kts 57°
2026-05-07 12:48 47.31793 -1.26212 36005 ft 469 kts 57°
2026-05-07 12:49 47.35368 -1.18168 36005 ft 469 kts 57°
2026-05-07 12:49 47.38944 -1.10106 36011 ft 469 kts 57°
2026-05-07 12:50 47.42475 -1.02096 36012 ft 469 kts 57°
2026-05-07 12:50 47.46030 -0.94019 36013 ft 469 kts 57°
2026-05-07 12:51 47.49583 -0.85934 36010 ft 468 kts 57°
2026-05-07 12:51 47.53131 -0.77818 36013 ft 469 kts 57°
2026-05-07 12:52 47.56657 -0.69747 36016 ft 469 kts 57°
2026-05-07 12:52 47.60191 -0.61626 36026 ft 469 kts 57°
2026-05-07 12:53 47.63715 -0.53481 36024 ft 468 kts 57°
2026-05-07 12:53 47.67236 -0.45346 36022 ft 468 kts 57°
2026-05-07 12:54 47.70754 -0.37201 36022 ft 468 kts 57°
2026-05-07 12:54 47.74232 -0.29090 36025 ft 468 kts 58°
2026-05-07 12:55 47.77727 -0.20922 36025 ft 468 kts 58°
2026-05-07 12:55 47.81198 -0.12715 36036 ft 468 kts 58°
2026-05-07 12:56 47.84669 -0.04527 36027 ft 467 kts 58°
2026-05-07 12:56 47.88147 0.03653 36044 ft 467 kts 58°
2026-05-07 12:57 47.91597 0.11801 36053 ft 467 kts 58°
2026-05-07 12:57 47.95064 0.20001 36056 ft 467 kts 58°
2026-05-07 12:58 47.98526 0.28226 36056 ft 467 kts 58°
2026-05-07 12:58 48.01982 0.36461 36057 ft 467 kts 58°
2026-05-07 12:59 48.05429 0.44693 36042 ft 467 kts 58°
2026-05-07 12:59 48.08853 0.52878 36041 ft 467 kts 58°
2026-05-07 13:00 48.12363 0.61062 36040 ft 467 kts 53°
2026-05-07 13:00 48.16291 0.68813 36041 ft 467 kts 52°
2026-05-07 13:01 48.20242 0.76567 36040 ft 467 kts 52°
2026-05-07 13:01 48.24180 0.84312 36048 ft 466 kts 52°
2026-05-07 13:02 48.28082 0.92010 36044 ft 466 kts 52°
2026-05-07 13:02 48.31988 0.99788 36051 ft 466 kts 53°
2026-05-07 13:03 48.35884 1.07597 36051 ft 466 kts 52°
2026-05-07 13:03 48.39790 1.15396 36044 ft 466 kts 52°
2026-05-07 13:04 48.43713 1.23164 36059 ft 466 kts 52°
2026-05-07 13:04 48.47606 1.30977 36068 ft 465 kts 53°
2026-05-07 13:05 48.51477 1.38804 36073 ft 465 kts 52°
2026-05-07 13:05 48.55346 1.46622 36071 ft 465 kts 53°
2026-05-07 13:06 48.59215 1.54389 36055 ft 465 kts 52°
2026-05-07 13:06 48.63084 1.62233 36055 ft 465 kts 54°
2026-05-07 13:07 48.64734 1.66444 36059 ft 465 kts 65°
2026-05-07 13:07 48.65957 1.70990 36059 ft 465 kts 70°
2026-05-07 13:07 48.68149 1.80152 36058 ft 465 kts 70°
2026-05-07 13:08 48.70354 1.89367 36065 ft 466 kts 70°
2026-05-07 13:08 48.72577 1.98583 36068 ft 466 kts 70°
2026-05-07 13:09 48.74793 2.07810 36060 ft 466 kts 70°
2026-05-07 13:09 48.76647 2.17215 36064 ft 465 kts 75°
2026-05-07 13:10 48.78334 2.26641 36058 ft 466 kts 75°
2026-05-07 13:10 48.80039 2.36132 36053 ft 466 kts 75°
2026-05-07 13:11 48.81724 2.45604 36053 ft 466 kts 75°
2026-05-07 13:11 48.83414 2.55106 36054 ft 466 kts 75°
2026-05-07 13:12 48.85094 2.64604 36053 ft 466 kts 75°
2026-05-07 13:12 48.86767 2.74120 36051 ft 466 kts 75°
2026-05-07 13:13 48.88151 2.82042 36058 ft 466 kts 75°
2026-05-07 13:13 48.90070 2.93126 36058 ft 466 kts 76°
2026-05-07 13:14 48.91409 3.01007 36061 ft 466 kts 76°
2026-05-07 13:14 48.93018 3.10510 36061 ft 466 kts 76°
2026-05-07 13:15 48.94673 3.20051 36061 ft 466 kts 75°
2026-05-07 13:15 48.96332 3.29589 36064 ft 466 kts 75°
2026-05-07 13:16 48.97956 3.39141 36065 ft 466 kts 76°
2026-05-07 13:16 48.99560 3.48704 36065 ft 466 kts 76°
2026-05-07 13:17 49.01186 3.58269 36063 ft 466 kts 72°
2026-05-07 13:17 49.02541 3.62726 36071 ft 465 kts 56°
2026-05-07 13:17 49.04475 3.66588 36078 ft 464 kts 49°
2026-05-07 13:18 49.08624 3.74153 36070 ft 464 kts 49°
2026-05-07 13:18 49.12701 3.81806 36059 ft 464 kts 50°
2026-05-07 13:19 49.16760 3.89478 36056 ft 464 kts 50°
2026-05-07 13:19 49.20814 3.97171 36055 ft 464 kts 50°
2026-05-07 13:20 49.24832 4.04834 36074 ft 464 kts 50°
2026-05-07 13:20 49.28844 4.12582 36064 ft 464 kts 51°
2026-05-07 13:21 49.32851 4.20322 36064 ft 464 kts 50°
2026-05-07 13:21 49.36875 4.28061 36066 ft 464 kts 50°
2026-05-07 13:22 49.40910 4.35796 36066 ft 464 kts 50°
2026-05-07 13:22 49.44929 4.43566 36070 ft 464 kts 51°
2026-05-07 13:23 49.48951 4.51323 36065 ft 463 kts 51°
2026-05-07 13:23 49.52902 4.59069 36066 ft 463 kts 51°
2026-05-07 13:24 49.56908 4.66836 36060 ft 463 kts 51°
2026-05-07 13:24 49.60934 4.74614 36058 ft 463 kts 51°
2026-05-07 13:25 49.64921 4.82418 36066 ft 463 kts 51°
2026-05-07 13:25 49.68902 4.90226 36058 ft 463 kts 51°
2026-05-07 13:26 49.72875 4.98067 36057 ft 463 kts 51°
2026-05-07 13:26 49.76829 5.05894 35929 ft 458 kts 51°
2026-05-07 13:27 49.78790 5.09784 35598 ft 459 kts 51°
2026-05-07 13:27 49.80758 5.13692 35329 ft 460 kts 51°
2026-05-07 13:27 49.82700 5.17552 35084 ft 460 kts 51°
2026-05-07 13:27 49.84666 5.21456 34842 ft 460 kts 51°
2026-05-07 13:28 49.86633 5.25376 34616 ft 460 kts 51°
2026-05-07 13:28 49.88591 5.29293 34372 ft 460 kts 51°
2026-05-07 13:28 49.90548 5.33219 34138 ft 459 kts 51°
2026-05-07 13:28 49.92514 5.37150 33873 ft 459 kts 51°
2026-05-07 13:29 49.94467 5.41063 33337 ft 457 kts 51°
2026-05-07 13:29 49.96386 5.44915 32627 ft 456 kts 51°
2026-05-07 13:29 49.98325 5.48818 31865 ft 457 kts 51°
2026-05-07 13:29 50.00266 5.52732 31074 ft 457 kts 51°
2026-05-07 13:30 50.02208 5.56650 30354 ft 456 kts 51°
2026-05-07 13:30 50.04141 5.60552 29583 ft 455 kts 51°
2026-05-07 13:30 50.06064 5.64448 28835 ft 452 kts 52°
2026-05-07 13:30 50.07968 5.68308 28185 ft 447 kts 52°
2026-05-07 13:31 50.09858 5.72144 27527 ft 444 kts 52°
2026-05-07 13:31 50.11731 5.75951 26862 ft 441 kts 52°
2026-05-07 13:31 50.13583 5.79727 26195 ft 439 kts 52°
2026-05-07 13:31 50.15418 5.83513 25553 ft 436 kts 52°
2026-05-07 13:32 50.17231 5.87229 24918 ft 434 kts 52°
2026-05-07 13:32 50.19063 5.90960 24245 ft 432 kts 52°
2026-05-07 13:32 50.20890 5.94687 23587 ft 431 kts 52°
2026-05-07 13:32 50.22709 5.98403 22846 ft 429 kts 52°
2026-05-07 13:33 50.24510 6.02100 22162 ft 426 kts 52°
2026-05-07 13:33 50.26296 6.05771 21480 ft 423 kts 52°
2026-05-07 13:33 50.28070 6.09418 20837 ft 419 kts 52°
2026-05-07 13:33 50.29969 6.12842 20215 ft 415 kts 43°
2026-05-07 13:34 50.32214 6.15632 19633 ft 410 kts 33°
2026-05-07 13:34 50.36962 6.20481 18545 ft 404 kts 32°
2026-05-07 13:34 50.39320 6.22877 17963 ft 403 kts 32°
2026-05-07 13:35 50.41664 6.25276 17404 ft 401 kts 32°
2026-05-07 13:35 50.43980 6.27659 16841 ft 394 kts 32°
2026-05-07 13:35 50.46254 6.30003 16297 ft 387 kts 32°
2026-05-07 13:35 50.48483 6.32309 15780 ft 380 kts 32°
2026-05-07 13:36 50.50692 6.34453 15304 ft 373 kts 29°
2026-05-07 13:36 50.52911 6.36529 14824 ft 369 kts 29°
2026-05-07 13:36 50.55129 6.38588 14317 ft 371 kts 29°
2026-05-07 13:36 50.57356 6.40634 13817 ft 371 kts 28°
2026-05-07 13:37 50.59589 6.42681 13275 ft 371 kts 28°
2026-05-07 13:37 50.61827 6.44720 12762 ft 371 kts 29°
2026-05-07 13:37 50.64057 6.46760 12254 ft 370 kts 29°
2026-05-07 13:37 50.66276 6.48803 11751 ft 365 kts 30°
2026-05-07 13:38 50.68417 6.50785 11265 ft 358 kts 30°
2026-05-07 13:38 50.70559 6.52775 10895 ft 345 kts 30°
2026-05-07 13:38 50.72549 6.54618 10522 ft 328 kts 30°
2026-05-07 13:38 50.74467 6.56402 10145 ft 312 kts 30°
2026-05-07 13:39 50.76290 6.58101 9953 ft 296 kts 30°
2026-05-07 13:39 50.78030 6.59719 9721 ft 288 kts 30°
2026-05-07 13:39 50.79750 6.61317 9347 ft 285 kts 30°
2026-05-07 13:39 50.81474 6.62898 8785 ft 287 kts 27°
2026-05-07 13:40 50.83334 6.63943 8347 ft 282 kts
2026-05-07 13:40 50.85263 6.64380 7961 ft 279 kts
2026-05-07 13:40 50.87182 6.64753 7575 ft 276 kts
2026-05-07 13:40 50.89073 6.65130 7197 ft 272 kts
2026-05-07 13:41 50.90940 6.65514 6839 ft 269 kts
2026-05-07 13:41 50.92789 6.65907 6524 ft 267 kts
2026-05-07 13:41 50.94621 6.66295 6147 ft 264 kts
2026-05-07 13:41 50.96442 6.66531 5722 ft 262 kts 355°
2026-05-07 13:42 50.98189 6.65829 5328 ft 259 kts 339°
2026-05-07 13:42 50.99832 6.64766 4974 ft 258 kts 338°
2026-05-07 13:42 51.01496 6.63675 4624 ft 257 kts 338°
2026-05-07 13:42 51.03120 6.62619 4420 ft 246 kts 338°
2026-05-07 13:43 51.04641 6.61515 4259 ft 236 kts 326°
2026-05-07 13:43 51.05819 6.59807 4109 ft 223 kts 314°
2026-05-07 13:43 51.06840 6.58036 3965 ft 210 kts 313°
2026-05-07 13:43 51.07781 6.56348 3822 ft 197 kts 313°
2026-05-07 13:44 51.08674 6.54741 3691 ft 194 kts 313°
2026-05-07 13:44 51.09575 6.53134 3648 ft 195 kts 313°
2026-05-07 13:44 51.10650 6.51869 3548 ft 192 kts 332°
2026-05-07 13:44 51.11881 6.51112 3429 ft 190 kts 352°
2026-05-07 13:45 51.13193 6.51332 3312 ft 192 kts 15°
2026-05-07 13:45 51.14468 6.51965 3192 ft 192 kts 17°
2026-05-07 13:45 51.15744 6.52588 3074 ft 190 kts 16°
2026-05-07 13:45 51.17010 6.53196 2965 ft 189 kts 19°
2026-05-07 13:46 51.18089 6.54365 2960 ft 191 kts 47°
2026-05-07 13:46 51.18891 6.56067 2989 ft 194 kts 55°
2026-05-07 13:46 51.19673 6.57785 2898 ft 186 kts 52°
2026-05-07 13:46 51.20420 6.59366 2684 ft 177 kts 51°
2026-05-07 13:47 51.21170 6.60943 2434 ft 170 kts 51°
2026-05-07 13:47 51.21895 6.62462 2198 ft 171 kts 51°
2026-05-07 13:47 51.22611 6.63963 1986 ft 169 kts 51°
2026-05-07 13:47 51.23311 6.65432 1834 ft 167 kts 50°
2026-05-07 13:48 51.23990 6.66859 1583 ft 153 kts 51°
2026-05-07 13:48 51.24592 6.68122 1339 ft 136 kts 50°
2026-05-07 13:48 51.25160 6.69314 1135 ft 135 kts 49°
2026-05-07 13:48 51.25731 6.70514 963 ft 135 kts 50°
2026-05-07 13:49 51.26291 6.71687 790 ft 134 kts 50°
2026-05-07 13:49 51.26861 6.72885 601 ft 135 kts 49°
2026-05-07 13:49 51.27427 6.74080 415 ft 136 kts 51°
2026-05-07 13:49 51.27993 6.75273 205 ft 133 kts 50°
2026-05-07 13:50 51.28534 6.76397 135 ft 117 kts 54°
2026-05-07 13:50 51.28901 6.77177 135 ft 60 kts 53°
2026-05-07 13:50 51.29013 6.77418 135 ft 19 kts 62°
2026-05-07 13:50 51.28988 6.77591 135 ft 13 kts 143°
2026-05-07 13:51 51.28902 6.77634 135 ft 15 kts 215°
2026-05-07 13:51 51.28832 6.77494 135 ft 17 kts 232°
2026-05-07 13:51 51.28756 6.77336 135 ft 19 kts 232°
2026-05-07 13:51 51.28672 6.77161 135 ft 21 kts 232°
2026-05-07 13:52 51.28581 6.76972 135 ft 22 kts 232°
2026-05-07 13:52 51.28485 6.76770 132 ft 24 kts 233°
2026-05-07 13:52 51.28383 6.76553 131 ft 25 kts 233°
2026-05-07 13:52 51.28274 6.76323 133 ft 27 kts 232°
2026-05-07 13:53 51.28159 6.76081 135 ft 20 kts 233°
2026-05-07 13:53 51.28118 6.76021 135 ft 7 kts 191°
2026-05-07 13:53 51.28065 6.76048 135 ft 8 kts 177°
2026-05-07 13:53 51.28039 6.76051 135 ft 2 kts 159°
2026-05-07 13:54 51.28026 6.76083 135 ft 5 kts 118°
2026-05-07 13:54 51.28006 6.76139 136 ft 5 kts 119°
2026-05-07 13:54 51.28003 6.76150 136 ft 1 kts 118°
2026-05-07 13:54 51.27999 6.76160 136 ft 0 kts 119°